Time,TemperatureF,DewpointF,PressureIn,WindDirection,WindDirectionDegrees,WindSpeedMPH,WindSpeedGustMPH,Humidity,HourlyPrecipIn,Conditions,Clouds,dailyrainin,SoftwareType,DateUTC
2013-08-06 00:13:00,50.6,48.0,30.05,NE,36,1.0,1.0,90,0.00,,,0.00,weatherlink.com 1.10,2013-08-06 04:13:00,
2013-08-06 00:28:00,50.5,48.0,30.05,NE,36,1.0,1.0,90,0.00,,,0.00,weatherlink.com 1.10,2013-08-06 04:28:00,
2013-08-06 00:43:00,50.4,48.0,30.05,NE,36,1.0,1.0,90,0.00,,,0.00,weatherlink.com 1.10,2013-08-06 04:43:00,
2013-08-06 00:58:00,50.3,48.0,30.05,NE,36,1.0,1.0,90,0.00,,,0.00,weatherlink.com 1.10,2013-08-06 04:58:00,
2013-08-06 01:13:00,50.4,48.0,30.05,NE,36,1.0,1.0,90,0.00,,,0.00,weatherlink.com 1.10,2013-08-06 05:13:00,
2013-08-06 01:28:00,50.3,48.0,30.06,NE,36,1.0,1.0,90,0.00,,,0.00,weatherlink.com 1.10,2013-08-06 05:28:00,
2013-08-06 01:43:00,50.3,48.0,30.05,NE,36,1.0,1.0,90,0.00,,,0.00,weatherlink.com 1.10,2013-08-06 05:43:00,
2013-08-06 01:58:00,50.3,48.0,30.05,NE,36,1.0,1.0,90,0.00,,,0.00,weatherlink.com 1.10,2013-08-06 05:58:00,
2013-08-06 02:13:00,50.2,48.0,30.06,NE,36,0.0,1.0,92,0.00,,,0.00,weatherlink.com 1.10,2013-08-06 06:13:00,
2013-08-06 02:28:00,50.2,48.0,30.06,NE,36,1.0,1.0,92,0.00,,,0.00,weatherlink.com 1.10,2013-08-06 06:28:00,
2013-08-06 02:43:00,50.2,48.0,30.06,NE,36,1.0,1.0,91,0.00,,,0.00,weatherlink.com 1.10,2013-08-06 06:43:00,
2013-08-06 02:58:00,50.1,48.0,30.06,NE,36,1.0,1.0,91,0.00,,,0.00,weatherlink.com 1.10,2013-08-06 06:58:00,
2013-08-06 03:13:00,50.3,48.0,30.06,NE,36,1.0,1.0,91,0.00,,,0.00,weatherlink.com 1.10,2013-08-06 07:13:00,
2013-08-06 03:28:00,50.1,48.0,30.06,NE,36,0.0,1.0,91,0.00,,,0.00,weatherlink.com 1.10,2013-08-06 07:28:00,
2013-08-06 03:43:00,49.4,48.0,30.06,NE,36,0.0,1.0,93,0.00,,,0.00,weatherlink.com 1.10,2013-08-06 07:43:00,
2013-08-06 03:58:00,49.5,48.0,30.07,NE,36,1.0,1.0,93,0.00,,,0.00,weatherlink.com 1.10,2013-08-06 07:58:00,
2013-08-06 04:13:00,49.5,48.0,30.07,NE,36,0.0,1.0,93,0.00,,,0.00,weatherlink.com 1.10,2013-08-06 08:13:00,
2013-08-06 04:28:00,49.3,47.0,30.07,NE,36,0.0,1.0,93,0.00,,,0.00,weatherlink.com 1.10,2013-08-06 08:28:00,
2013-08-06 04:43:00,48.9,47.0,30.07,NE,36,0.0,1.0,94,0.00,,,0.00,weatherlink.com 1.10,2013-08-06 08:43:00,
2013-08-06 04:58:00,48.8,47.0,30.08,NE,36,0.0,0.0,94,0.00,,,0.00,weatherlink.com 1.10,2013-08-06 08:58:00,
2013-08-06 05:13:00,48.9,47.0,30.08,NE,36,0.0,1.0,93,0.00,,,0.00,weatherlink.com 1.10,2013-08-06 09:13:00,
2013-08-06 05:28:00,49.0,47.0,30.09,NE,36,0.0,1.0,94,0.00,,,0.00,weatherlink.com 1.10,2013-08-06 09:28:00,
2013-08-06 05:43:00,49.4,48.0,30.09,NE,36,0.0,0.0,95,0.00,,,0.00,weatherlink.com 1.10,2013-08-06 09:43:00,
2013-08-06 05:58:00,49.5,48.0,30.09,NE,36,0.0,1.0,94,0.00,,,0.00,weatherlink.com 1.10,2013-08-06 09:58:00,
2013-08-06 06:14:00,49.7,48.0,30.09,NE,36,0.0,1.0,94,0.00,,,0.00,weatherlink.com 1.10,2013-08-06 10:14:00,
2013-08-06 06:29:00,50.9,49.0,30.09,NE,36,0.0,1.0,92,0.00,,,0.00,weatherlink.com 1.10,2013-08-06 10:29:00,
2013-08-06 06:44:00,52.8,49.0,30.10,NE,36,0.0,0.0,87,0.00,,,0.00,weatherlink.com 1.10,2013-08-06 10:44:00,
2013-08-06 06:59:00,52.5,50.0,30.10,NE,36,1.0,1.0,91,0.00,,,0.00,weatherlink.com 1.10,2013-08-06 10:59:00,
2013-08-06 07:14:00,54.0,52.0,30.10,NE,36,1.0,1.0,91,0.00,,,0.00,weatherlink.com 1.10,2013-08-06 11:14:00,
2013-08-06 07:29:00,57.3,54.0,30.11,NE,36,0.0,1.0,89,0.00,,,0.00,weatherlink.com 1.10,2013-08-06 11:29:00,
2013-08-06 07:44:00,59.3,54.0,30.11,SE,145,0.0,1.0,82,0.00,,,0.00,weatherlink.com 1.10,2013-08-06 11:44:00,
2013-08-06 07:59:00,58.4,54.0,30.12,SSE,164,1.0,1.0,84,0.00,,,0.00,weatherlink.com 1.10,2013-08-06 11:59:00,
2013-08-06 08:14:00,58.3,54.0,30.12,SSE,157,0.0,1.0,84,0.00,,,0.00,weatherlink.com 1.10,2013-08-06 12:14:00,
2013-08-06 08:29:00,58.8,54.0,30.12,SSE,168,0.0,1.0,85,0.00,,,0.00,weatherlink.com 1.10,2013-08-06 12:29:00,
2013-08-06 08:44:00,60.1,53.0,30.13,SW,215,0.0,2.0,78,0.00,,,0.00,weatherlink.com 1.10,2013-08-06 12:44:00,
2013-08-06 08:59:00,62.3,55.0,30.13,SSW,194,0.0,2.0,76,0.00,,,0.00,weatherlink.com 1.10,2013-08-06 12:59:00,
2013-08-06 09:14:00,62.6,54.0,30.13,SSE,148,3.0,3.0,74,0.00,,,0.00,weatherlink.com 1.10,2013-08-06 13:14:00,
2013-08-06 09:29:00,64.0,54.0,30.13,SE,130,0.0,3.0,69,0.00,,,0.00,weatherlink.com 1.10,2013-08-06 13:29:00,
2013-08-06 09:44:00,65.0,55.0,30.13,SSE,164,1.0,3.0,69,0.00,,,0.00,weatherlink.com 1.10,2013-08-06 13:44:00,
2013-08-06 09:59:00,67.1,55.0,30.13,SE,131,0.0,2.0,65,0.00,,,0.00,weatherlink.com 1.10,2013-08-06 13:59:00,
2013-08-06 10:14:00,68.8,56.0,30.13,WNW,295,1.0,2.0,63,0.00,,,0.00,weatherlink.com 1.10,2013-08-06 14:14:00,
2013-08-06 10:29:00,69.4,54.0,30.13,ESE,112,1.0,2.0,58,0.00,,,0.00,weatherlink.com 1.10,2013-08-06 14:29:00,
2013-08-06 10:44:00,69.4,54.0,30.13,WNW,298,1.0,5.0,58,0.00,,,0.00,weatherlink.com 1.10,2013-08-06 14:44:00,
2013-08-06 10:59:00,69.7,53.0,30.12,WSW,246,2.0,4.0,56,0.00,,,0.00,weatherlink.com 1.10,2013-08-06 14:59:00,
2013-08-06 11:14:00,69.7,53.0,30.12,SW,223,4.0,5.0,55,0.00,,,0.00,weatherlink.com 1.10,2013-08-06 15:14:00,
2013-08-06 11:29:00,69.3,55.0,30.12,SW,236,0.0,3.0,60,0.00,,,0.00,weatherlink.com 1.10,2013-08-06 15:29:00,
2013-08-06 11:44:00,70.2,53.0,30.12,ENE,70,0.0,2.0,55,0.00,,,0.00,weatherlink.com 1.10,2013-08-06 15:44:00,
2013-08-06 11:59:00,71.4,57.0,30.12,West,275,0.0,2.0,60,0.00,,,0.00,weatherlink.com 1.10,2013-08-06 15:59:00,
2013-08-06 12:15:00,71.3,55.0,30.11,SE,133,2.0,5.0,56,0.00,,,0.00,weatherlink.com 1.10,2013-08-06 16:15:00,
2013-08-06 12:30:00,71.9,54.0,30.11,South,191,1.0,3.0,53,0.00,,,0.00,weatherlink.com 1.10,2013-08-06 16:30:00,
2013-08-06 12:45:00,71.5,53.0,30.11,SW,217,1.0,3.0,52,0.00,,,0.00,weatherlink.com 1.10,2013-08-06 16:45:00,
2013-08-06 13:00:00,72.5,54.0,30.11,East,101,2.0,3.0,52,0.00,,,0.00,weatherlink.com 1.10,2013-08-06 17:00:00,
2013-08-06 13:15:00,71.6,56.0,30.11,NE,37,0.0,4.0,58,0.00,,,0.00,weatherlink.com 1.10,2013-08-06 17:15:00,
2013-08-06 13:30:00,71.9,57.0,30.10,SW,226,1.0,1.0,59,0.00,,,0.00,weatherlink.com 1.10,2013-08-06 17:30:00,
2013-08-06 13:45:00,69.8,54.0,30.11,SW,227,0.0,1.0,57,0.00,,,0.00,weatherlink.com 1.10,2013-08-06 17:45:00,
2013-08-06 14:00:00,68.2,56.0,30.11,SW,227,0.0,1.0,65,0.00,,,0.00,weatherlink.com 1.10,2013-08-06 18:00:00,
2013-08-06 14:15:00,69.0,53.0,30.10,SE,130,0.0,3.0,58,0.00,,,0.00,weatherlink.com 1.10,2013-08-06 18:15:00,
2013-08-06 14:30:00,69.8,55.0,30.10,SE,136,2.0,2.0,60,0.00,,,0.00,weatherlink.com 1.10,2013-08-06 18:30:00,
2013-08-06 14:45:00,69.8,55.0,30.10,SSW,211,0.0,3.0,60,0.00,,,0.00,weatherlink.com 1.10,2013-08-06 18:45:00,
2013-08-06 15:00:00,70.2,55.0,30.10,ENE,73,0.0,1.0,59,0.00,,,0.00,weatherlink.com 1.10,2013-08-06 19:00:00,
2013-08-06 15:15:00,70.5,58.0,30.09,SW,215,0.0,2.0,65,0.00,,,0.00,weatherlink.com 1.10,2013-08-06 19:15:00,
2013-08-06 15:30:00,70.6,55.0,30.09,SSW,210,1.0,2.0,58,0.00,,,0.00,weatherlink.com 1.10,2013-08-06 19:30:00,
2013-08-06 15:45:00,69.9,55.0,30.10,ESE,114,0.0,1.0,59,0.00,,,0.00,weatherlink.com 1.10,2013-08-06 19:45:00,
2013-08-06 16:00:00,69.4,55.0,30.10,SSE,155,0.0,0.0,61,0.00,,,0.00,weatherlink.com 1.10,2013-08-06 20:00:00,
2013-08-06 16:15:00,67.6,56.0,30.10,SSE,155,0.0,0.0,67,0.00,,,0.00,weatherlink.com 1.10,2013-08-06 20:15:00,
2013-08-06 16:30:00,67.4,57.0,30.11,East,83,0.0,1.0,69,0.00,,,0.00,weatherlink.com 1.10,2013-08-06 20:30:00,
2013-08-06 16:45:00,66.9,58.0,30.11,East,82,0.0,0.0,72,0.00,,,0.00,weatherlink.com 1.10,2013-08-06 20:45:00,
2013-08-06 17:00:00,66.6,57.0,30.11,East,82,0.0,0.0,72,0.00,,,0.00,weatherlink.com 1.10,2013-08-06 21:00:00,
2013-08-06 17:15:00,66.7,58.0,30.11,East,82,0.0,0.0,74,0.00,,,0.00,weatherlink.com 1.10,2013-08-06 21:15:00,
2013-08-06 17:30:00,66.8,57.0,30.11,East,82,0.0,0.0,71,0.00,,,0.00,weatherlink.com 1.10,2013-08-06 21:30:00,
2013-08-06 17:45:00,66.4,57.0,30.11,NE,45,0.0,0.0,71,0.00,,,0.00,weatherlink.com 1.10,2013-08-06 21:45:00,
2013-08-06 18:00:00,65.9,56.0,30.11,NE,46,0.0,0.0,70,0.00,,,0.00,weatherlink.com 1.10,2013-08-06 22:00:00,
2013-08-06 18:15:00,64.8,57.0,30.11,NE,45,0.0,0.0,75,0.00,,,0.00,weatherlink.com 1.10,2013-08-06 22:15:00,
2013-08-06 18:30:00,63.8,58.0,30.11,NE,46,0.0,0.0,81,0.00,,,0.00,weatherlink.com 1.10,2013-08-06 22:30:00,
2013-08-06 18:45:00,63.9,57.0,30.11,NE,46,0.0,0.0,78,0.00,,,0.00,weatherlink.com 1.10,2013-08-06 22:45:00,
2013-08-06 19:00:00,63.5,58.0,30.11,NE,45,0.0,0.0,82,0.00,,,0.00,weatherlink.com 1.10,2013-08-06 23:00:00,
2013-08-06 19:15:00,62.3,56.0,30.11,NE,45,0.0,1.0,80,0.00,,,0.00,weatherlink.com 1.10,2013-08-06 23:15:00,
2013-08-06 19:30:00,60.5,56.0,30.11,NE,45,0.0,1.0,85,0.00,,,0.00,weatherlink.com 1.10,2013-08-06 23:30:00,
2013-08-06 19:45:00,59.7,55.0,30.12,NE,46,1.0,2.0,84,0.00,,,0.00,weatherlink.com 1.10,2013-08-06 23:45:00,
2013-08-06 20:00:00,59.1,55.0,30.12,NE,45,1.0,1.0,86,0.00,,,0.00,weatherlink.com 1.10,2013-08-07 00:00:00,
2013-08-06 20:15:00,58.7,55.0,30.12,NE,46,1.0,1.0,87,0.00,,,0.00,weatherlink.com 1.10,2013-08-07 00:15:00,
2013-08-06 20:30:00,58.4,55.0,30.12,NE,46,1.0,2.0,87,0.00,,,0.00,weatherlink.com 1.10,2013-08-07 00:30:00,
2013-08-06 20:45:00,57.9,54.0,30.13,NE,46,1.0,2.0,87,0.00,,,0.00,weatherlink.com 1.10,2013-08-07 00:45:00,
2013-08-06 21:00:00,57.9,54.0,30.13,NE,45,1.0,1.0,87,0.00,,,0.00,weatherlink.com 1.10,2013-08-07 01:00:00,
2013-08-06 21:15:00,57.9,54.0,30.13,NE,47,0.0,2.0,87,0.00,,,0.00,weatherlink.com 1.10,2013-08-07 01:15:00,
2013-08-06 21:30:00,57.9,54.0,30.14,NE,47,0.0,1.0,88,0.00,,,0.00,weatherlink.com 1.10,2013-08-07 01:30:00,
2013-08-06 21:45:00,57.8,54.0,30.14,NE,47,0.0,2.0,87,0.00,,,0.00,weatherlink.com 1.10,2013-08-07 01:45:00,
2013-08-06 22:00:00,57.6,54.0,30.13,NE,47,1.0,1.0,86,0.00,,,0.00,weatherlink.com 1.10,2013-08-07 02:00:00,
2013-08-06 22:15:00,57.4,54.0,30.13,NE,46,1.0,2.0,87,0.00,,,0.00,weatherlink.com 1.10,2013-08-07 02:15:00,
2013-08-06 22:30:00,57.3,54.0,30.13,NE,46,0.0,1.0,88,0.00,,,0.00,weatherlink.com 1.10,2013-08-07 02:30:00,
2013-08-06 22:45:00,57.2,53.0,30.13,NE,46,0.0,2.0,87,0.00,,,0.00,weatherlink.com 1.10,2013-08-07 02:45:00,
2013-08-06 23:00:00,56.9,53.0,30.13,NE,46,1.0,1.0,87,0.00,,,0.00,weatherlink.com 1.10,2013-08-07 03:00:00,
2013-08-06 23:15:00,57.0,54.0,30.13,NE,46,1.0,1.0,88,0.00,,,0.00,weatherlink.com 1.10,2013-08-07 03:15:00,
2013-08-06 23:30:00,57.1,53.0,30.13,NE,46,0.0,1.0,87,0.00,,,0.00,weatherlink.com 1.10,2013-08-07 03:30:00,
2013-08-06 23:45:00,57.0,53.0,30.13,NE,46,1.0,2.0,87,0.00,,,0.00,weatherlink.com 1.10,2013-08-07 03:45:00,